sat.trackr.live / text

‹ back to catalog

SATELIOT_3

NORAD 60552 · 2024-149CN

PAYLOAD ACTIVE UNKNOWN

§ Identity

Operator
Country
SPN
Launch date
2024-08-16
Launch site
AFWTR
Launch vehicle
Mass (kg)
RCS (m²)

External: N2YO · Heavens-Above · Gunter

§ Orbital elements

Epoch: 2026-05-25T03:47:13.812000Z

Period
96.13 min
Inclination
97.6823°
Eccentricity
0.0006226
Mean motion
14.97942369 rev/d
Perigee alt
568.9 km
Apogee alt
577.6 km
Semi-major
6,951.4 km
B*
1.9925e-4
RAAN
222.2094°
Arg perigee
146.3546°
Mean anomaly
213.8072°
Rev number
9,663

§ Raw data

SATELIOT_31 60552U 24149CN  26145.15779875  .00002292  00000+0  19925-3 0  99982 60552  97.6823 222.2094 0006226 146.3546 213.8072 14.97942369 96632

JSON: /api/v1/satellites/60552 · /tle

For live sub-satellite position, see the globe view (requires WebGL).

§ Visibility from observer

Set your observer location to see the next 7 days of passes ≥ 10°. The values pass through the URL so the page stays shareable.

No JS? Fill the form by hand. The geolocation button needs JavaScript.